Wind_Speed
7 6 11 12 13 10 9 10 8 8 8 9 11 14 13 14 14 13 9 10 9 13 14 14 15 16 15 14 14 13 12 12 12 11 11 10 12 11 11 11 12 11 12
9 7 13 17 22 18 13 12 11 9 10 12 13 13 12 12 14 15 12 11 12 12 16 16 15 17 16 16 15 16 14 13 12 12 12 13 15 15 14 14 15 15 14
12 12 19 21 23 13 8 9 11 12 12 14 15 14 14 15 15 13 15 15 12 15 14 19 17 17 17 16 16 14 13 13 13 13 14 15 15 18 18 18 18 18 18
16 17 20 20 18 8 8 10 12 11 14 14 16 14 16 19 17 17 16 17 15 16 18 14 18 17 17 17 15 13 14 16 13 15 17 18 19 19 19 20 20 20 21
14 20 19 18 15 15 12 12 14 13 12 13 15 17 17 17 19 18 20 18 18 17 11 17 13 15 16 17 17 15 14 17 17 17 17 19 23 24 22 23 22 22 22
17 18 18 15 12 14 11 12 11 11 13 17 20 15 18 18 19 19 18 17 21 22 17 13 14 16 15 17 15 16 17 19 22 20 22 21 21 20 25 24 24 24 24
11 11 12 11 10 10 9 9 11 14 14 13 10 15 16 21 21 19 18 15 16 20 20 17 17 18 15 12 12 14 16 18 20 20 22 24 24 21 19 19 25 25 27
7 4 5 6 7 7 10 10 11 13 12 11 9 10 5 14 21 19 21 17 15 15 18 19 18 14 11 10 11 9 12 16 18 19 21 23 26 23 20 19 23 25 28
2 2 3 5 6 8 13 11 9 12 14 11 13 9 3 3 6 14 21 13 1 7 14 12 9 8 16 10 7 9 11 12 13 16 19 21 24 21 21 22 23 24 26
3 4 5 7 8 11 12 8 7 9 8 12 9 14 16 8 3 2 2 6 2 1 6 9 8 6 2 1 4 10 9 11 12 11 9 9 10 15 16 16 16 13 13
2 4 4 5 6 6 8 8 8 8 9 10 11 8 9 13 13 4 2 5 9 6 4 5 8 8 7 4 3 8 6 6 5 4 4 4 5 6 7 9 10 12 15
4 4 5 5 3 5 5 5 5 5 5 6 8 8 9 5 8 10 4 11 11 7 11 12 12 11 14 12 10 8 6 5 5 3 2 2 2 2 2 4 5 7 8
3 3 4 5 4 4 4 4 5 5 5 4 4 5 7 9 8 7 10 7 4 5 8 13 13 13 11 12 12 9 8 7 6 5 4 4 3 4 4 6 5 6 7
4 3 4 5 6 7 7 7 6 6 7 8 8 4 5 8 7 9 5 12 5 3 4 5 9 10 10 10 12 9 8 8 8 7 7 8 8 8 9 10 11 10 10
1 4 4 6 6 6 7 4 8 10 9 9 9 8 8 8 4 0 5 11 10 4 2 6 4 6 9 11 8 8 10 8 8 8 9 8 7 6 6 7 8 9 9
4 5 4 5 6 8 9 10 11 11 11 11 10 11 11 9 8 6 3 5 8 6 4 4 5 11 10 10 9 9 9 6 6 6 6 7 6 6 6 7 8 10 11
5 5 5 6 7 10 11 9 9 12 14 13 12 14 13 12 12 9 7 4 4 7 9 7 14 12 11 11 10 9 8 8 8 9 8 8 8 8 9 8 8 8 8
5 5 7 8 9 10 10 11 11 13 13 14 13 15 17 13 14 13 11 12 10 7 12 14 13 9 11 9 8 8 7 8 8 8 7 7 6 6 6 6 6 7 7
5 5 6 8 8 9 10 11 11 11 12 13 14 16 15 15 16 15 13 12 12 11 9 14 10 11 10 7 8 7 7 6 5 5 5 6 7 7 8 8 9 9 9
4 4 5 6 7 8 9 9 10 10 11 13 14 16 16 14 13 11 14 14 14 14 15 14 15 12 8 6 6 6 4 4 4 4 6 5 8 8 8 9 9 9 9
3 3 4 4 5 5 6 7 8 9 10 12 13 15 18 19 16 15 12 11 12 14 16 17 12 9 8 6 4 4 4 4 1 4 2 1 2 3 6 8 8 6 7
4 3 3 3 4 5 8 9 9 8 9 10 11 11 10 15 20 19 16 16 15 13 13 12 10 9 7 6 5 5 5 4 3 5 2 3 2 2 3 2 3 3 5
6 4 3 4 4 5 8 10 9 7 8 9 9 8 9 11 11 12 16 17 19 17 13 12 12 10 8 5 2 3 2 1 2 4 5 4 2 2 3 1 3 3 4
8 6 4 4 6 4 7 10 10 6 6 8 8 9 9 9 12 11 12 15 15 15 15 12 11 9 6 4 3 1 2 2 3 5 4 1 3 4 6 6 1 1 2
11 9 8 7 6 6 8 9 3 4 5 6 6 8 7 8 11 11 9 10 10 12 14 14 13 12 12 10 7 8 5 8 6 6 4 3 3 2 6 11 7 5 4
13 12 10 9 8 7 8 8 4 4 5 6 5 6 5 7 7 7 6 5 5 5 4 4 5 6 5 7 13 11 8 10 8 4 5 7 6 2 7 10 11 10 9
Wind_Direction
195 252 266 258 260 268 253 253 243 223 214 228 222 215 228 247 245 242 229 224 247 236 228 229 235 239 239 236 240 239 239 241 250 250 255 257 254 258 252 254 260 260 257
214 242 265 266 263 239 234 237 247 241 232 228 231 240 237 240 243 249 251 242 256 242 235 234 238 243 241 239 240 241 239 244 250 259 261 263 262 260 256 257 256 257 260
228 251 268 260 268 276 204 220 234 238 242 240 238 228 245 235 244 237 248 262 251 247 242 236 238 243 240 235 238 244 244 250 253 263 270 267 271 268 265 260 262 260 255
238 264 258 251 267 284 239 241 237 238 242 250 251 254 241 237 243 247 248 246 252 252 243 235 237 242 240 238 237 243 241 243 246 256 261 263 267 268 270 268 266 263 262
243 260 247 252 254 249 249 237 239 249 243 251 252 246 242 241 237 241 244 245 242 247 250 240 239 235 240 240 238 236 240 248 248 248 256 260 262 260 262 266 267 267 267
252 249 237 241 241 243 242 252 260 250 249 238 236 244 238 248 247 241 245 250 234 235 238 243 229 231 239 236 231 226 229 241 246 249 258 261 267 269 263 266 268 268 269
245 227 231 230 230 258 253 251 245 245 258 270 290 264 260 234 244 239 239 241 228 223 231 237 235 235 232 215 219 226 233 243 249 249 257 260 264 271 273 276 265 265 266
229 234 241 238 246 258 251 252 261 263 260 251 237 257 264 247 235 233 235 230 223 229 233 233 243 223 244 207 210 213 234 241 248 253 259 261 262 263 269 268 265 264 267
238 285 281 275 283 268 273 238 253 254 258 249 225 237 281 248 239 205 214 242 231 225 247 281 288 239 229 203 211 219 234 233 238 249 258 262 264 267 265 272 273 274 274
312 297 291 284 281 274 305 294 284 265 263 260 258 247 246 264 292 231 237 197 150 24 286 291 307 312 340 238 205 210 224 225 233 234 252 260 252 255 266 271 272 281 294
323 327 314 306 291 290 284 277 278 268 257 254 245 245 239 244 244 253 174 139 103 76 45 22 39 71 90 144 167 80 102 138 165 204 242 263 270 270 278 280 282 284 286
22 338 347 338 315 308 302 299 300 281 286 259 241 230 232 234 241 227 225 164 123 77 75 74 67 79 96 96 81 78 98 106 113 117 99 61 35 21 343 324 315 313 314
348 349 11 21 358 351 2 5 6 344 354 306 245 245 241 240 257 252 228 143 138 134 83 79 80 84 87 94 94 88 89 85 82 81 69 56 40 32 23 26 19 2 357
43 5 20 28 24 22 33 30 23 15 10 12 20 358 254 252 236 235 220 157 138 130 103 119 94 110 113 102 90 76 82 86 87 83 73 73 69 65 61 58 54 48 44
58 69 43 46 40 36 41 41 39 34 30 32 22 14 20 26 21 311 174 177 154 155 121 158 119 120 120 113 104 105 95 90 87 82 79 77 67 52 43 40 38 38 41
39 54 51 59 56 52 49 41 50 34 34 30 28 32 30 33 39 45 126 163 179 148 129 109 109 139 130 114 101 95 82 93 81 73 69 66 58 51 43 43 44 45 46
45 61 68 70 69 63 58 52 72 49 44 42 36 36 36 32 41 45 57 83 128 139 120 100 125 134 119 125 122 118 91 81 82 84 80 72 63 57 52 51 49 53 41
75 72 70 66 63 64 64 62 59 62 52 48 44 44 39 42 42 36 50 55 62 101 128 122 129 116 113 119 110 104 93 96 86 83 71 60 51 43 39 40 44 47 50
84 68 73 76 70 67 67 67 67 68 67 61 54 55 50 51 53 53 57 65 64 81 106 137 122 131 117 120 107 100 99 98 95 84 67 60 58 59 62 60 61 59 58
98 88 79 83 82 75 71 73 75 76 74 69 62 59 54 52 46 58 60 73 79 82 98 109 116 122 122 126 113 110 107 117 100 90 94 97 65 53 45 50 51 56 61
125 116 105 96 87 73 76 76 79 77 77 77 75 69 64 64 66 70 73 64 95 95 102 109 117 126 134 152 174 163 148 154 166 142 138 171 194 109 45 49 34 43 56
164 141 120 111 93 81 114 95 83 82 82 79 75 72 70 60 65 67 75 76 83 94 114 121 133 140 151 146 154 173 158 199 160 190 200 189 184 138 95 55 41 66 73
173 173 154 129 101 100 112 114 95 91 89 87 83 78 78 72 72 70 63 70 79 81 88 95 89 87 85 69 105 181 215 255 95 160 207 210 192 187 167 348 29 68 79
179 177 183 148 133 133 119 122 106 95 89 84 83 77 73 75 76 79 77 73 74 82 81 83 81 75 72 66 346 124 190 172 154 193 206 173 212 177 188 208 24 136 151
174 181 178 164 161 158 144 141 104 132 107 95 86 91 81 81 99 90 93 94 93 91 82 78 77 74 65 48 29 329 219 296 243 177 221 291 223 245 201 202 207 199 194
179 178 174 173 171 174 166 163 176 187 138 116 106 102 99 94 106 97 100 103 98 94 98 109 64 56 59 39 45 33 8 344 336 143 36 322 221 206 251 210 187 205 214
Height
831 834 836 836 835 831 831 836 833 830 832 835 836 836 837 838 838 839 837 838 840 842 844 846 847 849 850 852 854 855 856 858 859 860 861 862 862 863 864 864 864 864 865
829 831 833 832 830 826 825 828 830 831 832 833 834 834 835 835 836 837 837 836 837 839 841 843 844 846 848 850 852 853 855 856 857 858 859 860 860 861 861 862 862 863 863
827 829 830 826 823 820 823 827 830 830 832 831 832 832 834 834 834 834 836 836 835 836 836 839 841 842 844 846 849 851 854 854 855 856 857 857 858 857 858 859 859 860 860
825 827 827 824 820 819 823 826 828 828 830 829 830 830 830 831 831 832 832 833 834 834 833 834 836 838 840 843 845 848 849 852 851 852 853 853 853 854 854 855 856 857 858
822 823 824 822 822 822 823 824 824 824 826 827 827 827 827 826 827 828 828 828 830 831 831 831 832 833 835 837 841 843 845 848 849 849 849 848 847 848 849 851 852 853 854
819 820 821 820 820 820 821 822 822 824 823 822 821 819 822 823 823 823 823 824 824 827 828 827 826 827 828 830 834 838 841 842 844 846 845 843 843 844 845 848 849 849 849
816 818 817 819 819 819 819 820 820 820 820 819 819 818 817 817 817 818 819 819 818 820 821 821 822 823 823 824 828 832 836 838 839 841 840 840 840 841 842 842 843 843 844
817 817 817 817 817 818 817 817 817 818 819 819 819 819 816 811 811 812 814 814 815 815 815 817 824 827 829 827 825 827 830 834 836 837 836 835 836 839 839 839 837 838 838
817 817 816 816 816 816 814 813 815 816 815 815 816 816 813 809 805 806 809 812 811 812 812 817 817 795 822 824 824 825 827 830 832 833 833 832 832 835 835 834 834 834 834
817 816 816 815 815 814 812 812 812 813 812 812 812 812 811 811 808 809 808 811 815 813 812 816 818 814 819 823 823 823 824 828 829 830 830 830 829 830 831 831 831 830 830
817 817 815 814 813 812 812 812 811 811 810 810 809 809 810 809 808 809 811 814 817 817 815 813 817 819 821 819 820 824 825 827 829 830 830 829 828 829 829 829 828 827 826
817 817 815 814 812 812 811 811 810 809 808 807 807 806 806 807 804 806 808 812 814 820 818 816 815 816 818 822 826 827 828 829 829 829 829 828 827 828 828 827 826 825 824
819 817 816 814 813 812 811 811 810 809 807 806 805 805 805 805 805 805 806 810 812 820 821 822 822 823 825 827 829 829 830 830 829 829 829 828 828 828 827 826 825 824 822
818 818 816 815 814 813 811 811 811 810 808 806 805 804 804 803 803 804 804 805 813 818 822 824 826 827 828 829 830 830 830 831 830 830 829 828 828 829 828 827 826 825 823
820 819 818 816 815 815 814 812 812 811 809 807 807 806 804 803 803 803 804 806 807 814 820 821 827 829 830 831 831 831 832 832 832 831 830 830 830 830 829 828 828 826 825
821 820 819 818 817 816 814 814 813 813 811 810 809 808 806 805 805 805 805 806 808 810 816 824 828 829 831 832 832 833 833 834 833 832 832 832 832 831 831 829 828 827 827
823 822 821 820 818 816 816 817 816 815 815 814 813 811 809 808 807 807 807 807 808 810 817 825 828 831 832 833 834 835 837 836 835 834 833 833 834 833 832 831 830 829 828
824 824 823 821 820 819 819 819 819 818 819 818 817 814 813 812 811 811 811 810 811 812 815 823 829 831 833 834 836 837 837 838 837 837 836 835 835 834 834 833 832 831 830
825 826 824 822 823 822 822 821 821 822 822 821 820 817 816 815 815 815 815 815 815 816 818 823 829 832 835 836 837 838 838 838 838 838 838 837 836 836 836 835 834 832 831
826 826 826 826 825 825 825 825 825 824 824 823 823 822 820 818 818 819 818 818 820 821 823 826 831 834 836 838 839 839 840 840 840 840 839 840 840 839 838 837 835 834 833
827 827 827 828 828 828 828 828 828 828 827 826 826 826 825 823 821 820 821 822 822 825 827 830 833 836 838 839 839 840 840 841 841 840 840 841 841 840 839 838 837 837 835
828 829 829 830 830 830 830 830 830 832 831 831 831 831 830 828 828 827 826 825 825 826 828 831 833 835 837 838 839 838 839 839 840 841 841 841 841 841 841 840 839 838 837
828 830 830 831 833 833 831 832 833 835 835 834 834 834 833 833 833 833 833 832 831 832 833 834 834 836 837 837 837 837 837 836 837 839 839 839 840 840 839 840 840 840 839
828 829 831 832 834 835 835 834 835 837 838 837 837 838 838 836 835 836 837 837 837 835 835 836 837 838 838 838 838 837 836 836 836 837 837 837 838 838 838 839 839 838 839
826 828 829 831 834 835 835 836 836 837 838 839 840 839 840 839 838 837 839 840 841 840 840 839 840 840 840 839 838 836 834 833 828 833 835 835 837 836 836 836 836 836 836
823 825 828 830 832 834 835 835 835 837 839 839 840 840 840 840 840 839 839 840 841 841 840 840 841 840 840 840 839 839 837 833 830 830 836 835 833 833 832 833 834 833 834